www.cux-wetter.de
Wetterdaten: Dienstag, 16.10.2012
Datum Zeit Temp. A. Feuchte A. Luftdruck Regen Wind Richtung Richtung Sonnenschein Solar Taupunkt Windchill Windben
16.10.2012 00:00 9,3 C 79 % 1003,5 hPa 0,0 l/m 22,8 km/h (4 Bft) W-SW 255 0 min 0 W/m 5,8 C 1,5 C 22,8 km/h (4 Bft)
16.10.2012 00:15 9,4 C 78 % 1003,5 hPa 0,0 l/m 29,4 km/h (5 Bft) W-SW 255 0 min 0 W/m 5,8 C -0,1 C 29,4 km/h (5 Bft)
16.10.2012 00:30 9,5 C 78 % 1003,5 hPa 0,0 l/m 27,0 km/h (5 Bft) W 260 0 min 0 W/m 5,9 C 0,6 C 27,0 km/h (5 Bft)
16.10.2012 00:45 9,5 C 78 % 1003,5 hPa 0,0 l/m 22,2 km/h (4 Bft) W 270 0 min 0 W/m 5,9 C 1,9 C 22,2 km/h (4 Bft)
16.10.2012 01:00 9,5 C 78 % 1003,5 hPa 0,0 l/m 27,4 km/h (5 Bft) W 265 0 min 0 W/m 5,9 C 0,5 C 27,4 km/h (5 Bft)
16.10.2012 01:15 9,5 C 78 % 1003,5 hPa 0,0 l/m 28,3 km/h (5 Bft) W 260 0 min 0 W/m 5,9 C 0,3 C 28,3 km/h (5 Bft)
16.10.2012 01:30 9,5 C 79 % 1003,5 hPa 0,0 l/m 28,8 km/h (5 Bft) W 265 0 min 0 W/m 6,0 C 0,2 C 28,8 km/h (5 Bft)
16.10.2012 01:45 9,5 C 79 % 1003,5 hPa 0,0 l/m 25,0 km/h (4 Bft) W-SW 240 0 min 0 W/m 6,0 C 1,2 C 25,0 km/h (4 Bft)
16.10.2012 02:00 9,4 C 80 % 1003,5 hPa 0,0 l/m 24,6 km/h (4 Bft) W-SW 240 0 min 0 W/m 6,1 C 1,1 C 24,6 km/h (4 Bft)
16.10.2012 02:15 9,3 C 80 % 1003,5 hPa 0,0 l/m 24,0 km/h (4 Bft) W-SW 255 0 min 0 W/m 6,0 C 1,2 C 24,0 km/h (4 Bft)
16.10.2012 02:30 9,3 C 81 % 1003,5 hPa 0,0 l/m 27,3 km/h (5 Bft) W-SW 245 0 min 0 W/m 6,2 C 0,3 C 27,3 km/h (5 Bft)
16.10.2012 02:45 9,3 C 81 % 1003,5 hPa 0,0 l/m 25,2 km/h (4 Bft) W 260 0 min 0 W/m 6,2 C 0,8 C 25,2 km/h (4 Bft)
16.10.2012 03:00 9,3 C 81 % 1003,5 hPa 0,0 l/m 28,5 km/h (5 Bft) W 260 0 min 0 W/m 6,2 C 0,0 C 28,5 km/h (5 Bft)
16.10.2012 03:15 9,4 C 82 % 1003,5 hPa 0,0 l/m 22,5 km/h (4 Bft) W-SW 255 0 min 0 W/m 6,5 C 1,7 C 22,5 km/h (4 Bft)
16.10.2012 03:30 9,3 C 82 % 1003,5 hPa 0,0 l/m 19,0 km/h (3 Bft) W-SW 245 0 min 0 W/m 6,4 C 2,7 C 19,0 km/h (3 Bft)
16.10.2012 03:45 9,3 C 82 % 1003,5 hPa 0,0 l/m 24,0 km/h (4 Bft) W-SW 250 0 min 0 W/m 6,4 C 1,2 C 24,0 km/h (4 Bft)
16.10.2012 04:00 9,3 C 83 % 1003,5 hPa 0,0 l/m 20,5 km/h (4 Bft) W-SW 250 0 min 0 W/m 6,6 C 2,2 C 20,5 km/h (4 Bft)
16.10.2012 04:15 9,2 C 83 % 1003,5 hPa 0,0 l/m 25,3 km/h (4 Bft) W-SW 255 0 min 0 W/m 6,5 C 0,7 C 25,3 km/h (4 Bft)
16.10.2012 04:30 9,0 C 83 % 1003,5 hPa 0,0 l/m 25,8 km/h (4 Bft) W 265 0 min 0 W/m 6,3 C 0,3 C 25,8 km/h (4 Bft)
16.10.2012 04:45 8,9 C 83 % 1003,5 hPa 0,0 l/m 23,4 km/h (4 Bft) W-SW 240 0 min 0 W/m 6,2 C 0,8 C 23,4 km/h (4 Bft)
16.10.2012 05:00 8,8 C 84 % 1003,5 hPa 0,0 l/m 22,2 km/h (4 Bft) W-SW 245 0 min 0 W/m 6,2 C 1,0 C 22,2 km/h (4 Bft)
16.10.2012 05:15 8,8 C 84 % 1003,5 hPa 0,0 l/m 22,1 km/h (4 Bft) W-SW 245 0 min 0 W/m 6,2 C 1,1 C 22,1 km/h (4 Bft)
16.10.2012 05:30 8,8 C 84 % 1003,5 hPa 0,0 l/m 23,9 km/h (4 Bft) W-SW 245 0 min 0 W/m 6,2 C 0,5 C 23,9 km/h (4 Bft)
16.10.2012 05:45 8,7 C 84 % 1003,5 hPa 0,0 l/m 25,1 km/h (4 Bft) W-SW 255 0 min 0 W/m 6,2 C 0,0 C 25,1 km/h (4 Bft)
16.10.2012 06:00 8,8 C 85 % 1003,5 hPa 0,0 l/m 26,1 km/h (4 Bft) W-SW 250 0 min 0 W/m 6,4 C -0,1 C 26,1 km/h (4 Bft)
16.10.2012 06:15 8,9 C 85 % 1003,5 hPa 0,0 l/m 28,2 km/h (5 Bft) W-SW 250 0 min 0 W/m 6,5 C -0,5 C 28,2 km/h (5 Bft)
16.10.2012 06:30 8,8 C 85 % 1003,5 hPa 0,0 l/m 24,3 km/h (4 Bft) W-SW 250 0 min 0 W/m 6,4 C 0,4 C 24,3 km/h (4 Bft)
16.10.2012 06:45 8,8 C 85 % 1003,5 hPa 0,0 l/m 29,8 km/h (5 Bft) W-SW 240 0 min 0 W/m 6,4 C -1,0 C 29,8 km/h (5 Bft)
16.10.2012 06:59 8,7 C 85 % 1003,5 hPa 0,0 l/m 26,1 km/h (4 Bft) SW 215 0 min 0 W/m 6,3 C -0,2 C 26,1 km/h (4 Bft)
16.10.2012 07:15 8,7 C 85 % 1002,5 hPa 0,0 l/m 26,8 km/h (4 Bft) SW 225 0 min 0 W/m 6,3 C -0,4 C 26,8 km/h (4 Bft)
16.10.2012 07:30 8,7 C 85 % 1002,5 hPa 0,0 l/m 25,6 km/h (4 Bft) SW 230 0 min 0 W/m 6,3 C -0,1 C 25,6 km/h (4 Bft)
16.10.2012 07:45 8,7 C 85 % 1002,5 hPa 0,0 l/m 19,2 km/h (3 Bft) SW 225 0 min 0 W/m 6,3 C 1,9 C 19,2 km/h (3 Bft)
16.10.2012 08:00 8,8 C 85 % 1003,5 hPa 0,0 l/m 27,8 km/h (5 Bft) SW 230 0 min 0 W/m 6,4 C -0,5 C 27,8 km/h (5 Bft)
16.10.2012 08:15 8,7 C 85 % 1003,5 hPa 0,0 l/m 21,1 km/h (4 Bft) SW 230 0 min 0 W/m 6,3 C 1,2 C 21,1 km/h (4 Bft)
16.10.2012 08:30 8,8 C 85 % 1003,5 hPa 0,0 l/m 26,9 km/h (4 Bft) SW 230 0 min 0 W/m 6,4 C -0,3 C 26,9 km/h (4 Bft)
16.10.2012 08:45 8,8 C 85 % 1002,5 hPa 0,0 l/m 24,7 km/h (4 Bft) SW 230 0 min 0 W/m 6,4 C 0,3 C 24,7 km/h (4 Bft)
16.10.2012 09:00 8,8 C 85 % 1002,5 hPa 0,0 l/m 23,8 km/h (4 Bft) SW 215 0 min 0 W/m 6,4 C 0,5 C 23,8 km/h (4 Bft)
16.10.2012 09:15 9,0 C 85 % 1002,5 hPa 0,0 l/m 22,9 km/h (4 Bft) S-SW 210 0 min 0 W/m 6,6 C 1,1 C 22,9 km/h (4 Bft)
16.10.2012 09:30 9,1 C 84 % 1002,5 hPa 0,0 l/m 25,4 km/h (4 Bft) SW 215 0 min 0 W/m 6,5 C 0,5 C 25,4 km/h (4 Bft)
16.10.2012 09:45 9,2 C 84 % 1002,5 hPa 0,0 l/m 24,5 km/h (4 Bft) S-SW 210 0 min 0 W/m 6,6 C 0,9 C 24,5 km/h (4 Bft)
16.10.2012 10:00 9,4 C 84 % 1002,5 hPa 0,0 l/m 26,5 km/h (4 Bft) SW 220 0 min 0 W/m 6,8 C 0,6 C 26,5 km/h (4 Bft)
16.10.2012 10:15 9,6 C 82 % 1002,5 hPa 0,0 l/m 26,1 km/h (4 Bft) SW 215 0 min 0 W/m 6,7 C 1,0 C 26,1 km/h (4 Bft)
16.10.2012 10:30 9,9 C 82 % 1002,5 hPa 0,0 l/m 29,5 km/h (5 Bft) SW 215 0 min 0 W/m 7,0 C 0,6 C 29,5 km/h (5 Bft)
16.10.2012 10:45 10,1 C 81 % 1002,5 hPa 0,0 l/m 26,5 km/h (4 Bft) SW 230 0 min 0 W/m 7,0 C 1,6 C 26,5 km/h (4 Bft)
16.10.2012 11:00 10,4 C 80 % 1002,5 hPa 0,0 l/m 28,3 km/h (5 Bft) SW 225 0 min 0 W/m 7,1 C 1,6 C 28,3 km/h (5 Bft)
16.10.2012 11:15 10,8 C 79 % 1002,5 hPa 0,0 l/m 29,6 km/h (5 Bft) W-SW 240 0 min 0 W/m 7,3 C 1,9 C 29,6 km/h (5 Bft)
16.10.2012 11:30 10,9 C 78 % 1002,5 hPa 0,0 l/m 35,3 km/h (5 Bft) SW 220 0 min 0 W/m 7,2 C 0,9 C 35,3 km/h (5 Bft)
16.10.2012 11:45 10,9 C 77 % 1002,5 hPa 0,0 l/m 27,2 km/h (5 Bft) SW 220 0 min 0 W/m 7,0 C 2,5 C 27,2 km/h (5 Bft)
16.10.2012 11:59 11,0 C 77 % 1002,5 hPa 0,0 l/m 24,5 km/h (4 Bft) SW 230 0 min 0 W/m 7,1 C 3,3 C 24,5 km/h (4 Bft)
16.10.2012 12:15 11,0 C 77 % 1002,5 hPa 0,0 l/m 27,1 km/h (5 Bft) SW 220 0 min 0 W/m 7,1 C 2,7 C 27,1 km/h (5 Bft)
16.10.2012 12:30 11,1 C 77 % 1002,5 hPa 0,0 l/m 24,8 km/h (4 Bft) SW 225 0 min 0 W/m 7,2 C 3,4 C 24,8 km/h (4 Bft)
16.10.2012 12:44 11,0 C 77 % 1002,5 hPa 0,0 l/m 26,1 km/h (4 Bft) SW 215 0 min 0 W/m 7,1 C 2,9 C 26,1 km/h (4 Bft)
16.10.2012 13:00 10,9 C 77 % 1002,5 hPa 0,0 l/m 26,7 km/h (4 Bft) SW 230 0 min 0 W/m 7,0 C 2,6 C 26,7 km/h (4 Bft)
16.10.2012 13:15 10,8 C 80 % 1001,5 hPa 0,0 l/m 30,8 km/h (5 Bft) SW 220 0 min 0 W/m 7,5 C 1,6 C 30,8 km/h (5 Bft)
16.10.2012 13:30 10,8 C 80 % 1001,5 hPa 0,0 l/m 26,3 km/h (4 Bft) SW 220 0 min 0 W/m 7,5 C 2,6 C 26,3 km/h (4 Bft)
16.10.2012 13:45 10,8 C 80 % 1001,5 hPa 0,0 l/m 26,5 km/h (4 Bft) SW 235 0 min 0 W/m 7,5 C 2,6 C 26,5 km/h (4 Bft)
16.10.2012 14:00 10,8 C 81 % 1001,5 hPa 0,3 l/m 28,5 km/h (5 Bft) W 260 0 min 0 W/m 7,7 C 2,1 C 28,5 km/h (5 Bft)
16.10.2012 14:15 10,4 C 83 % 1001,5 hPa 0,3 l/m 28,3 km/h (5 Bft) W-SW 240 0 min 0 W/m 7,6 C 1,6 C 28,3 km/h (5 Bft)
16.10.2012 14:30 10,3 C 85 % 1001,5 hPa 0,0 l/m 28,5 km/h (5 Bft) SW 230 0 min 0 W/m 7,9 C 1,4 C 28,5 km/h (5 Bft)
16.10.2012 14:45 10,2 C 86 % 1001,5 hPa 0,3 l/m 28,2 km/h (5 Bft) SW 215 0 min 0 W/m 8,0 C 1,3 C 28,2 km/h (5 Bft)
16.10.2012 15:00 10,1 C 87 % 1001,5 hPa 0,3 l/m 26,5 km/h (4 Bft) SW 225 0 min 0 W/m 8,0 C 1,6 C 26,5 km/h (4 Bft)
16.10.2012 15:15 10,0 C 88 % 1001,5 hPa 0,0 l/m 28,9 km/h (5 Bft) SW 235 0 min 0 W/m 8,1 C 0,9 C 28,9 km/h (5 Bft)
16.10.2012 15:30 10,0 C 88 % 1001,5 hPa 0,3 l/m 30,8 km/h (5 Bft) S-SW 210 0 min 0 W/m 8,1 C 0,5 C 30,8 km/h (5 Bft)
16.10.2012 15:45 10,0 C 89 % 1001,5 hPa 0,0 l/m 25,5 km/h (4 Bft) SW 230 0 min 0 W/m 8,3 C 1,7 C 25,5 km/h (4 Bft)
16.10.2012 16:00 10,0 C 89 % 1001,5 hPa 0,0 l/m 22,5 km/h (4 Bft) SW 225 0 min 0 W/m 8,3 C 2,5 C 22,5 km/h (4 Bft)
16.10.2012 16:15 10,0 C 89 % 1001,5 hPa 0,0 l/m 23,3 km/h (4 Bft) W-SW 240 0 min 0 W/m 8,3 C 2,3 C 23,3 km/h (4 Bft)
16.10.2012 16:30 10,1 C 89 % 1001,5 hPa 0,0 l/m 25,8 km/h (4 Bft) W-SW 240 0 min 0 W/m 8,4 C 1,8 C 25,8 km/h (4 Bft)
16.10.2012 16:45 10,1 C 89 % 1001,5 hPa 0,0 l/m 26,5 km/h (4 Bft) W-SW 245 0 min 0 W/m 8,4 C 1,6 C 26,5 km/h (4 Bft)
16.10.2012 17:00 10,1 C 89 % 1001,5 hPa 0,0 l/m 29,6 km/h (5 Bft) W-SW 240 0 min 0 W/m 8,4 C 0,9 C 29,6 km/h (5 Bft)
16.10.2012 17:15 10,2 C 89 % 1001,5 hPa 0,0 l/m 25,2 km/h (4 Bft) SW 235 0 min 0 W/m 8,5 C 2,1 C 25,2 km/h (4 Bft)
16.10.2012 17:30 10,2 C 89 % 1001,5 hPa 0,0 l/m 26,0 km/h (4 Bft) SW 235 0 min 0 W/m 8,5 C 1,9 C 26,0 km/h (4 Bft)
16.10.2012 17:45 10,1 C 88 % 1001,5 hPa 0,0 l/m 24,9 km/h (4 Bft) W-SW 240 0 min 0 W/m 8,2 C 2,0 C 24,9 km/h (4 Bft)
16.10.2012 18:00 10,0 C 88 % 1001,5 hPa 0,0 l/m 27,0 km/h (5 Bft) SW 225 0 min 0 W/m 8,1 C 1,3 C 27,0 km/h (5 Bft)
16.10.2012 18:15 9,8 C 88 % 1001,5 hPa 0,0 l/m 26,4 km/h (4 Bft) W-SW 240 0 min 0 W/m 7,9 C 1,2 C 26,4 km/h (4 Bft)
16.10.2012 18:30 9,7 C 88 % 1001,5 hPa 0,0 l/m 25,1 km/h (4 Bft) SW 220 0 min 0 W/m 7,8 C 1,4 C 25,1 km/h (4 Bft)
16.10.2012 18:45 9,6 C 88 % 1001,5 hPa 0,0 l/m 25,6 km/h (4 Bft) SW 220 0 min 0 W/m 7,7 C 1,1 C 25,6 km/h (4 Bft)
16.10.2012 18:59 9,6 C 88 % 1001,5 hPa 0,0 l/m 23,3 km/h (4 Bft) SW 220 0 min 0 W/m 7,7 C 1,8 C 23,3 km/h (4 Bft)
16.10.2012 19:15 9,5 C 88 % 1001,5 hPa 0,0 l/m 26,3 km/h (4 Bft) SW 230 0 min 0 W/m 7,6 C 0,8 C 26,3 km/h (4 Bft)
16.10.2012 19:30 9,5 C 88 % 1001,5 hPa 0,0 l/m 22,7 km/h (4 Bft) SW 230 0 min 0 W/m 7,6 C 1,8 C 22,7 km/h (4 Bft)
16.10.2012 19:44 9,5 C 88 % 1002,5 hPa 0,0 l/m 28,3 km/h (5 Bft) SW 225 0 min 0 W/m 7,6 C 0,3 C 28,3 km/h (5 Bft)
16.10.2012 20:00 9,5 C 88 % 1002,5 hPa 0,0 l/m 23,2 km/h (4 Bft) SW 235 0 min 0 W/m 7,6 C 1,7 C 23,2 km/h (4 Bft)
16.10.2012 20:15 9,5 C 88 % 1002,5 hPa 0,0 l/m 32,8 km/h (5 Bft) W-SW 245 0 min 0 W/m 7,6 C -0,6 C 32,8 km/h (5 Bft)
16.10.2012 20:30 9,5 C 88 % 1002,5 hPa 0,0 l/m 28,1 km/h (5 Bft) W 260 0 min 0 W/m 7,6 C 0,4 C 28,1 km/h (5 Bft)
16.10.2012 20:45 9,5 C 88 % 1002,5 hPa 0,0 l/m 26,1 km/h (4 Bft) W 260 0 min 0 W/m 7,6 C 0,9 C 26,1 km/h (4 Bft)
16.10.2012 21:00 9,5 C 89 % 1002,5 hPa 0,0 l/m 30,2 km/h (5 Bft) W-SW 255 0 min 0 W/m 7,8 C -0,1 C 30,2 km/h (5 Bft)
16.10.2012 21:15 9,5 C 89 % 1002,5 hPa 0,0 l/m 31,0 km/h (5 Bft) SW 235 0 min 0 W/m 7,8 C -0,3 C 31,0 km/h (5 Bft)
16.10.2012 21:30 9,6 C 89 % 1003,5 hPa 0,3 l/m 30,0 km/h (5 Bft) W 265 0 min 0 W/m 7,9 C 0,1 C 30,0 km/h (5 Bft)
16.10.2012 21:45 9,8 C 89 % 1003,5 hPa 0,0 l/m 27,4 km/h (5 Bft) W 265 0 min 0 W/m 8,1 C 1,0 C 27,4 km/h (5 Bft)
16.10.2012 22:00 9,9 C 89 % 1003,5 hPa 0,0 l/m 30,6 km/h (5 Bft) W 275 0 min 0 W/m 8,2 C 0,4 C 30,6 km/h (5 Bft)
16.10.2012 22:15 9,8 C 89 % 1003,5 hPa 0,9 l/m 28,8 km/h (5 Bft) W-NW 295 0 min 0 W/m 8,1 C 0,6 C 28,8 km/h (5 Bft)
16.10.2012 22:30 9,7 C 90 % 1003,5 hPa 0,0 l/m 33,3 km/h (5 Bft) W 260 0 min 0 W/m 8,1 C -0,4 C 33,3 km/h (5 Bft)
16.10.2012 22:45 9,6 C 90 % 1003,5 hPa 0,0 l/m 29,8 km/h (5 Bft) W 260 0 min 0 W/m 8,0 C 0,1 C 29,8 km/h (5 Bft)
16.10.2012 23:00 9,5 C 91 % 1003,5 hPa 0,0 l/m 28,5 km/h (5 Bft) W 265 0 min 0 W/m 8,1 C 0,3 C 28,5 km/h (5 Bft)
16.10.2012 23:15 9,5 C 91 % 1003,5 hPa 0,0 l/m 28,0 km/h (5 Bft) W-SW 255 0 min 0 W/m 8,1 C 0,4 C 28,0 km/h (5 Bft)
16.10.2012 23:30 9,5 C 91 % 1003,5 hPa 0,0 l/m 34,3 km/h (5 Bft) W-SW 255 0 min 0 W/m 8,1 C -0,9 C 34,3 km/h (5 Bft)
16.10.2012 23:45 9,6 C 91 % 1003,5 hPa 0,0 l/m 33,0 km/h (5 Bft) W 270 0 min 0 W/m 8,2 C -0,5 C 33,0 km/h (5 Bft)
_ Min-Zeit 05:45 11:45 13:15 - 03:30 - - - - 00:15 06:45 03:30
Minimum _ 8,7 C 77 % 1001,5 hPa - 19,0 km/h (3 Bft) - - - - 5,8 C -1,0 C 19,0 km/h (3 Bft)
_ Max-Zeit 12:30 23:00 00:00 22:15 11:30 - - 00:00 00:00 17:15 12:30 11:30
Maximum _ 11,1 C 91 % 1003,5 hPa 0,9 l/m 35,3 km/h
SW (5 Bft)
- - 0 min 0 W/m 8,5 C 3,4 C 35,3 km/h
SW (5 Bft)
Durchschnitt _ 9,6 C 84 % 1002,7 hPa #2,7 l/m 26,6 km/h (4 Bft) SW - #0 min. 0 W/m 7,1 C 1,0 C 26,6 km/h (4 Bft)
copyright by Holger Just